Regional Weather Roundup
Issued by NWS

Home | Current Version | Previous Version | Graphics & Text | Print | Product List | Glossary On
Versions: 1 2 3 4 5 6 7 8 9 10 11 12 13 14 15 16 17 18 19 20 21 22 23 24 25 26 27 28 29 30 31 32 33 34 35 36 37 38 39 40 41 42 43 44 45 46 47 48 49 50
000
ASUS44 KMEG 022110
RWRTN
TENNESSEE HOURLY STATE WEATHER ROUNDUP
NATIONAL WEATHER SERVICE MEMPHIS TN
400 PM CDT SUN AUG 02 2015

TNZ002-004-019-021-049-052-054-088>092-022200-
WEST TENNESSEE

CITY           SKY/WX    TMP DP  RH WIND       PRES   REMARKS
MEMPHIS INTL   PTSUNNY   94  67  41 N8        29.91F HX  97
NWS MEMPHIS      N/A     92 N/A N/A MISG        N/A
JACKSON        PTSUNNY   91  68  46 S3        29.93F HX  95
DYERSBURG        N/A    N/A N/A N/A MISG        N/A
PARIS          SUNNY     88  66  48 CALM      29.95F HX  90
LEXINGTON      SUNNY     90  59  35 NW3       29.94S
$$

TNZ008-025-027-028-033-062-065-066-022200-
NORTH MIDDLE TENNESSEE

CITY           SKY/WX    TMP DP  RH WIND       PRES   REMARKS
NASHVILLE      PTSUNNY   90  56  31 VRB3      29.95S
CLARKSVILLE    MOSUNNY   88  62  41 N3        29.94F
SMYRNA         PTSUNNY   93  57  29 VRB3      29.95F HX  91
CROSSVILLE     SUNNY     84  52  33 CALM      30.01F
$$

TNZ061-075-076-078-094-096-097-022200-
SOUTH MIDDLE TENNESSEE

CITY           SKY/WX    TMP DP  RH WIND       PRES   REMARKS
FAYETTEVILLE     N/A     88  54  31 E6        29.94F
TULLAHOMA        N/A     88  50  27 N9        29.97S
WINCHESTER     SUNNY     90  55  31 N8        29.95S
COLUMBIA       SUNNY     91  52  25 VRB5      29.93F
SHELBYVILLE    SUNNY     90  59  35 VRB7      29.95F
$$

TNZ017-018-042-046-047-022200-
NORTHEAST TENNESSEE

CITY           SKY/WX    TMP DP  RH WIND       PRES   REMARKS
TRI CITIES     MOSUNNY   89  51  27 N6        29.98F
ELIZABETHTON   CLEAR     84  54  34 CALM      29.99S
$$

TNZ012-013-036-069-073-074-022200-
CENTRAL EAST TENNESSEE

CITY           SKY/WX    TMP DP  RH WIND       PRES   REMARKS
KNOXVILLE      MOSUNNY   89  59  36 NW6       29.94F
OAK RIDGE      SUNNY     91  55  29 VRB3      29.96F
GATLINBURG     CLEAR     90  57  33 VRB5      29.93F
MORRISTOWN     CLEAR     88  57  35 NW6       29.97F
$$

TNZ083-085-099-022200-
SOUTHEAST TENNESSEE

CITY           SKY/WX    TMP DP  RH WIND       PRES   REMARKS
CHATTANOOGA    PTSUNNY   92  58  31 NW8       29.92F HX  91
$$

SKY/WX REPORTED AS FAIR MEANS FEW OR NO CLOUDS BELOW
12 THOUSAND FEET.



USA.gov is the U.S. government's official web portal to all federal, state and local government web resources and services.